Change the Weather History Date:

Sunday, January 27, 2013

  Actual Average Record
Temperature  
Mean Temperature 29 °F 16 °F  
Max Temperature 32 °F 25 °F 52 °F (2002)
Min Temperature 25 °F 7 °F -23 °F (1950)
Degree Days  
Heating Degree Days 36 49  
Month to date heating degree days 1278 1336  
Since 1 July heating degree days 4206 4479  
Cooling Degree Days 0 0  
Month to date cooling degree days 0 0  
Year to date cooling degree days 0 0  
Moisture  
Dew Point 27 °F    
Average Humidity 77    
Maximum Humidity 100    
Minimum Humidity 53    
Precipitation  
Precipitation 0.00 in 0.02 in 0.85 in (1968)
Month to date precipitation 0.13 0.39  
Sea Level Pressure  
Sea Level Pressure 29.86 in    
Wind  
Wind Speed 12 mph (SSE)    
Max Wind Speed 21 mph    
Max Gust Speed 25 mph    
Visibility 4 miles    
Events Fog , Rain    
T = Trace of Precipitation, MM = Missing Value Source: NWS Daily Summary

Daily Weather History Graph

Daily Weather History Graph

Search for Another Location

Airport or City:

Trip Planner

Search our weather history database for the weather conditions in past years. The results will help you decide how hot, cold, wet, or windy it might be!

Date:

Astronomy

Jan. 27, 2013 Rise Set
Actual Time 7:39 AM CST 5:24 PM CST
Civil Twilight 7:09 AM CST 5:55 PM CST
Nautical Twilight 6:34 AM CST 6:29 PM CST
Astronomical Twilight 6:00 AM CST 7:03 PM CST
Moon 6:22 PM CST (1/27) 7:30 AM CST (1/27)
Length of Visible Light 10h 46m
Length of Day
9h 44m
Full, 100% of the Moon is Illuminated
Jan 27
Full
Feb 3
Last Quarter
Feb 10
New
Feb 17
First Quarter
Feb 25
Full

Hourly Weather History & Observations

Time (CST) Temp. Windchill Dew Point Humidity Pressure Visibility Wind Dir Wind Speed Gust Speed Precip Events Conditions
12:52 AM 25.0 °F 13.1 °F 12.9 °F 60% 30.07 in 10.0 mi SSE 13.8 mph - N/A   Clear
1:52 AM 28.0 °F 15.7 °F 14.0 °F 56% 30.06 in 10.0 mi SSE 17.3 mph - N/A   Mostly Cloudy
2:52 AM 25.0 °F 13.6 °F 15.1 °F 66% 30.05 in 10.0 mi SSE 12.7 mph - N/A   Mostly Cloudy
3:52 AM 25.0 °F 13.6 °F 15.1 °F 66% 30.03 in 10.0 mi SSE 12.7 mph - N/A   Scattered Clouds
4:52 AM 28.0 °F 16.5 °F 16.0 °F 61% 30.00 in 10.0 mi SSE 15.0 mph - N/A   Overcast
5:52 AM 28.9 °F 17.3 °F 16.0 °F 58% 29.99 in 10.0 mi SSE 16.1 mph - N/A   Overcast
6:30 AM 28.4 °F 16.2 °F 17.6 °F 64% 29.92 in 10.0 mi SSE 17.3 mph - N/A   Overcast
6:52 AM 28.9 °F 17.7 °F 17.1 °F 61% 29.97 in 10.0 mi SSE 15.0 mph - N/A   Overcast
7:47 AM 28.4 °F 17.0 °F 23.0 °F 80% 29.89 in 9.0 mi SSE 15.0 mph - 0.00 in   Overcast
7:52 AM 28.9 °F 17.3 °F 24.1 °F 82% 29.94 in 8.0 mi SSE 16.1 mph - 0.00 in Rain Light Freezing Rain
8:08 AM 30.2 °F 19.3 °F 26.6 °F 86% 29.90 in 7.0 mi SSE 15.0 mph - 0.00 in Rain Light Freezing Rain
8:52 AM 30.9 °F 18.7 °F 28.0 °F 89% 29.92 in 3.0 mi SE 19.6 mph - 0.00 in Rain Light Freezing Rain
9:36 AM 30.2 °F 18.1 °F 28.4 °F 93% 29.89 in 2.5 mi SSE 18.4 mph - 0.00 in Rain Light Freezing Rain
9:52 AM 30.9 °F 19.4 °F 28.9 °F 92% 29.93 in 2.0 mi SSE 17.3 mph - 0.00 in Rain Light Freezing Rain
10:06 AM 32.0 °F 21.6 °F 30.2 °F 93% 29.87 in 2.5 mi SSE 15.0 mph - 0.00 in   Overcast
10:17 AM 32.0 °F 22.1 °F 30.2 °F 93% 29.87 in 2.5 mi SSE 13.8 mph - 0.00 in Rain Light Freezing Rain
10:34 AM 32.0 °F 22.1 °F 30.2 °F 93% 29.87 in 1.8 mi SSE 13.8 mph - 0.00 in Rain Light Freezing Rain
10:40 AM 32.0 °F 21.2 °F 30.2 °F 93% 29.88 in 2.0 mi SSE 16.1 mph - N/A Rain Light Freezing Rain
10:52 AM 32.0 °F 21.6 °F 30.0 °F 92% 29.93 in 3.0 mi SSE 15.0 mph - N/A Rain Light Freezing Rain
11:16 AM 32.0 °F 21.6 °F 30.2 °F 93% 29.87 in 3.0 mi SSE 15.0 mph - N/A   Overcast
11:52 AM 32.0 °F 20.1 °F 30.0 °F 92% 29.89 in 2.0 mi SSE 19.6 mph - N/A   Overcast
12:01 PM 32.0 °F 21.2 °F 30.2 °F 93% 29.84 in 1.5 mi SSE 16.1 mph - N/A   Overcast
12:13 PM 32.0 °F 21.2 °F 30.2 °F 93% 29.83 in 1.0 mi SSE 16.1 mph - N/A   Overcast
12:52 PM 32.0 °F 21.6 °F 30.0 °F 92% 29.86 in 1.0 mi SSE 15.0 mph - N/A Rain Light Freezing Rain
1:09 PM 32.0 °F 22.1 °F 30.2 °F 93% 29.80 in 1.2 mi SSE 13.8 mph - N/A Rain Light Freezing Rain
1:30 PM 32.0 °F 22.5 °F 30.2 °F 93% 29.79 in 1.5 mi SSE 12.7 mph - N/A Rain Light Freezing Rain
1:52 PM 32.0 °F 21.2 °F 30.0 °F 92% 29.82 in 1.5 mi SSE 16.1 mph - N/A Rain Light Freezing Rain
2:06 PM 32.0 °F 20.8 °F 30.2 °F 93% 29.76 in 2.0 mi SSE 17.3 mph - N/A   Overcast
2:52 PM 32.0 °F 22.5 °F 30.0 °F 92% 29.81 in 2.5 mi SSE 12.7 mph - N/A   Overcast
3:11 PM 32.0 °F 22.5 °F 30.2 °F 93% 29.76 in 1.8 mi SE 12.7 mph - N/A   Overcast
3:40 PM 32.0 °F 21.6 °F 30.2 °F 93% 29.75 in 2.0 mi SSE 15.0 mph - N/A   Overcast
3:52 PM 32.0 °F 22.5 °F 30.9 °F 96% 29.79 in 2.0 mi SE 12.7 mph - N/A   Overcast
4:23 PM 32.0 °F 22.5 °F 30.2 °F 93% 29.74 in 3.0 mi SSE 12.7 mph - N/A   Overcast
4:52 PM 32.0 °F 23.6 °F 30.0 °F 92% 29.79 in 3.0 mi SSE 10.4 mph - N/A   Overcast
5:00 PM 32.0 °F 22.5 °F 30.2 °F 93% 29.75 in 3.0 mi SSE 12.7 mph - N/A   Overcast
5:52 PM 30.9 °F 24.3 °F 30.0 °F 96% 29.79 in 6.0 mi SSE 6.9 mph - N/A   Overcast
6:52 PM 30.9 °F 27.5 °F 30.0 °F 96% 29.81 in 3.0 mi SSE 3.5 mph - N/A   Overcast
7:19 PM 30.2 °F 24.3 °F 30.2 °F 100% 29.76 in 2.5 mi SE 5.8 mph - N/A   Overcast
7:52 PM 30.9 °F 26.2 °F 30.0 °F 96% 29.80 in 2.0 mi SSE 4.6 mph - N/A   Overcast
8:10 PM 30.2 °F 25.4 °F 30.2 °F 100% 29.76 in 1.5 mi South 4.6 mph - N/A   Overcast
8:52 PM 30.9 °F - 30.0 °F 96% 29.80 in 1.0 mi Calm Calm - N/A   Mist
9:07 PM 30.2 °F - 30.2 °F 100% 29.75 in 0.8 mi Calm Calm - N/A   Mist
9:52 PM 30.9 °F - 30.0 °F 96% 29.80 in 0.5 mi Calm Calm - N/A Fog Light Freezing Fog
10:52 PM 30.0 °F 26.5 °F 28.9 °F 96% 29.81 in 0.2 mi WSW 3.5 mph - N/A Fog Light Freezing Fog
11:52 PM 30.0 °F - 28.9 °F 96% 29.80 in 0.2 mi Calm Calm - N/A Fog Light Freezing Fog